Location: ???? ?????????
(44.3677°N, 135.2344°E)
Time: 15:44:56
(UTC+00:00)

ARIANE 6 FM1 Upper Stage - Visible Passes

Search period start: 17 July 2025 00:00
Search period end: 27 July 2025 00:00
Orbit: 529 x 612 km, 62.0° (Epoch: 16 July)

Date Brightness Start Highest point End Pass type
(mag) Time Alt. Az. Time Alt. Az. Time Alt. Az.
17 Jul 5.1 16:35:39 10° ESE 16:36:07 10° ESE 16:36:55 10° E visible
17 Jul 2.5 18:11:45 19° SW 18:14:35 83° NW 18:18:36 10° NE visible
18 Jul 4.6 16:37:14 16° ESE 16:37:27 16° ESE 16:40:00 10° ENE visible
18 Jul 2.9 18:13:20 18° WSW 18:16:10 55° NW 18:20:06 10° NNE visible
19 Jul 4.0 16:38:46 25° ESE 16:38:50 25° ESE 16:42:08 10° ENE visible
19 Jul 3.5 18:14:52 15° WSW 18:17:47 38° NW 18:21:33 10° NNE visible
20 Jul 3.4 16:40:15 38° ESE 16:40:16 38° ESE 16:43:59 10° NE visible
20 Jul 4.1 18:16:21 12° W 18:19:27 27° NW 18:22:55 10° NNE visible
21 Jul 2.7 16:41:41 59° SE 16:41:44 59° SE 16:45:40 10° NE visible
21 Jul 4.5 18:18:07 10° W 18:21:10 21° NW 18:24:14 10° NNE visible
22 Jul 2.4 16:43:05 83° SW 16:43:14 89° NW 16:47:15 10° NE visible
22 Jul 4.9 18:20:23 10° WNW 18:22:54 16° NNW 18:25:27 10° N visible
23 Jul 5.3 15:08:21 10° E 15:08:21 10° E 15:08:29 10° ENE visible
23 Jul 2.8 16:44:26 56° WNW 16:44:47 59° NW 16:48:45 10° NNE visible
23 Jul 5.1 18:22:52 10° NW 18:24:43 13° NNW 18:26:33 10° N visible
24 Jul 4.9 15:09:39 15° ENE 15:09:39 15° ENE 15:10:39 10° ENE visible
24 Jul 3.4 16:45:44 37° WNW 16:46:23 40° NW 16:50:11 10° NNE visible
24 Jul 5.4 18:25:55 10° NNW 18:26:32 10° NNW 18:27:09 10° NNW visible
25 Jul 4.6 15:10:55 21° ENE 15:10:55 21° ENE 15:12:32 10° NE visible
25 Jul 4.0 16:47:00 25° WNW 16:48:01 29° NW 16:51:32 10° NNE visible
26 Jul 4.2 15:12:08 28° ENE 15:12:08 28° ENE 15:14:14 10° NE visible
26 Jul 4.6 16:48:13 18° WNW 16:49:42 22° NW 16:52:51 10° NNE visible
